Location: Quedlinburg
(51.7921°N, 11.1414°E)
Time: 02:20:27
(UTC+02:00)

METEOR M2 - Pass Details

Date: 20 March 2026
Orbit: 817 x 824 km, 98.5° (Epoch: 13 April)

Event Time Altitude Azimuth Distance (km) Brightness Sun altitude
Rises 05:34:56 0° 11° (N) 3,375 ? -7.5°
Reaches altitude 10° 05:37:22 10° 5° (N) 2,437 ? -7.2°
Maximum altitude 05:42:29 46° 294° (WNW) 1,108 ? -6.4°
Drops below altitude 10° 05:47:34 10° 223° (SW) 2,421 ? -5.6°
Sets 05:49:59 0° 218° (SW) 3,349 ? -5.2°
